Ageda, Japan

8:18 PM JST on December 10, 2016 (GMT +0900)
Kadena Air Base

Weather History for RODN - November, 2012

Change the Weather History Date:

Wednesday, November 14, 2012

  Actual Average Record
Temperature  
Mean Temperature 66 °F -  
Max Temperature 73 °F 72 °F 82 °F (1998)
Min Temperature 58 °F 61 °F 57 °F (2007)
Cooling Degree Days 1    
Growing Degree Days 16 (Base 50)    
Moisture  
Dew Point 53 °F    
Average Humidity 61    
Maximum Humidity 81    
Minimum Humidity 52    
Precipitation  
Precipitation 0.00 in - - ()
Sea Level Pressure  
Sea Level Pressure 30.10 in    
Wind  
Wind Speed 6 mph ()    
Max Wind Speed 14 mph    
Max Gust Speed 22 mph    
Visibility 10.0 miles    
Events      
Averages and records for this station are not official NWS values.
T = Trace of Precipitation, MM = Missing Value Source: Averaged Metar Reports

Daily Weather History Graph

Daily Weather History Graph

Search for Another Location

Airport or City:

Trip Planner

Search our weather history database for the weather conditions in past years. The results will help you decide how hot, cold, wet, or windy it might be!

Date:

Astronomy

Nov. 14, 2012 Rise Set
Actual Time 6:46 AM JST 5:39 PM JST
Civil Twilight 6:22 AM JST 6:03 PM JST
Nautical Twilight 5:54 AM JST 6:31 PM JST
Astronomical Twilight 5:27 AM JST 6:59 PM JST
Moon 6:50 AM JST (11/14) 5:57 PM JST (11/14)
Length of Visible Light 11h 41m
Length of Day
10h 52m
New Moon, 0% of the Moon is Illuminated
Nov 14
New Moon
Nov 20
First Quarter
Nov 28
Full
Dec 7
Last Quarter
Dec 13
New

Hourly Weather History & Observations

Time (JST) Temp. Dew Point Humidity Pressure Visibility Wind Dir Wind Speed Gust Speed Precip Events Conditions
12:55 AM 67.3 °F 54.3 °F 63% 30.04 in 10.0 mi WNW 5.8 mph - N/A   Clear
1:55 AM 66.2 °F 53.1 °F 63% 30.04 in 10.0 mi NW 4.6 mph - N/A   Clear
2:55 AM 66.2 °F 52.9 °F 62% 30.04 in 10.0 mi NNW 4.6 mph - N/A   Clear
3:55 AM 65.7 °F 51.4 °F 60% 30.04 in 10.0 mi NNW 3.5 mph - N/A   Clear
4:55 AM 65.1 °F 51.8 °F 62% 30.05 in 10.0 mi NNW 4.6 mph - N/A   Partly Cloudy
5:55 AM 65.1 °F 52.0 °F 62% 30.06 in 10.0 mi NNW 3.5 mph - N/A   Clear
6:55 AM 65.1 °F 52.0 °F 62% 30.08 in 10.0 mi NW 5.8 mph - N/A   Scattered Clouds
7:55 AM 64.6 °F 55.0 °F 71% 30.10 in 10.0 mi NNE 3.5 mph - N/A   Clear
8:55 AM 69.8 °F 52.7 °F 54% 30.11 in 10.0 mi North 9.2 mph - N/A   Clear
9:55 AM 71.4 °F 53.1 °F 52% 30.12 in 10.0 mi North 11.5 mph - N/A   Clear
10:55 AM 72.3 °F 54.0 °F 52% 30.13 in 10.0 mi North 10.4 mph - N/A   Clear
11:55 AM 73.2 °F 55.0 °F 53% 30.12 in 10.0 mi NNW 13.8 mph 20.7 mph N/A   Partly Cloudy
12:55 PM 72.0 °F 54.7 °F 54% 30.10 in 10.0 mi NNW 9.2 mph 21.9 mph N/A   Partly Cloudy
1:55 PM 71.4 °F 54.0 °F 54% 30.10 in 10.0 mi North 11.5 mph - N/A   Partly Cloudy
2:55 PM 72.0 °F 53.8 °F 53% 30.09 in 10.0 mi North 10.4 mph - N/A   Partly Cloudy
3:55 PM 70.9 °F 53.4 °F 54% 30.09 in 10.0 mi North 9.2 mph - N/A   Scattered Clouds
4:55 PM 69.1 °F 52.3 °F 55% 30.11 in 10.0 mi NNW 10.4 mph - N/A   Partly Cloudy
5:55 PM 66.9 °F 52.2 °F 59% 30.12 in 10.0 mi North 8.1 mph - N/A   Partly Cloudy
6:55 PM 65.5 °F 52.7 °F 63% 30.13 in 10.0 mi NNE 5.8 mph - N/A   Scattered Clouds
7:55 PM 65.3 °F 53.8 °F 66% 30.15 in 10.0 mi NNE 4.6 mph - N/A   Mostly Cloudy
8:55 PM 65.8 °F 51.8 °F 60% 30.16 in 10.0 mi North 4.6 mph - N/A   Scattered Clouds
9:55 PM 63.1 °F 51.4 °F 66% 30.16 in 10.0 mi North 5.8 mph - N/A   Clear
10:55 PM 59.5 °F 53.1 °F 79% 30.16 in 10.0 mi NNE 4.6 mph - N/A   Partly Cloudy
11:55 PM 58.5 °F 52.7 °F 81% 30.17 in 10.0 mi NNE 4.6 mph - N/A   Partly Cloudy